Regional Weather Roundup
Issued by NWS Albany, NY

Current Version | Previous Version | Graphics & Text | Print | Product List | Glossary Off
Versions: 1 2 3 4 5 6 7 8 9 10 11 12 13 14 15 16 17 18 19 20 21 22 23 24 25 26 27 28 29 30 31 32 33 34 35 36 37 38 39 40 41 42 43 44 45 46 47 48 49 50

732
ASUS41 KALY 261910
RWRALY

NEW YORK STATE HOURLY WEATHER ROUNDUP
NATIONAL WEATHER SERVICE ALBANY NY
300 PM EDT SUN MAR 26 2017

NOTE: "FAIR" INDICATES FEW OR NO CLOUDS BELOW 12,000 FEET WITH NO
SIGNIFICANT WEATHER AND/OR NO OBSTRUCTIONS TO VISIBILITY.

NYZ032-033-038>043-046>054-057>066-NYZ062>081-082-084-262000-
EAST


CITY           SKY/WX    TMP DP  RH WIND       PRES   REMARKS
ALBANY         CLOUDY    38  27  64 SE10      30.44F WCI  31
GLENS FALLS    CLOUDY    36  21  54 CALM      30.43F
POUGHKEEPSIE   CLOUDY    38  29  70 E6        30.43F WCI  33
MONTGOMERY     LGT RAIN  37  33  85 N8        30.42F WCI  31
WHITE PLAINS   LGT RAIN  38  31  76 E12       30.42F FOG     WCI  30
ISLIP          LGT RAIN  41  34  76 E17       30.43F
NEW YORK CITY  CLOUDY    42  33  70 NE14      30.43F
CENTRAL PARK   CLOUDY    40  33  76 E8        30.45F WCI  34
$$

NYZ005>009-017-018-044>046-055-056-262000-
CENTRAL


CITY           SKY/WX    TMP DP  RH WIND       PRES   REMARKS
FULTON         LGT RAIN  39  29  67 SE9G20    30.22F WCI  33
SYRACUSE       CLOUDY    41  32  70 E12       30.24F
ROME           CLOUDY    36  28  73 E21       30.33F WCI  25
ELMIRA         CLOUDY    46  37  71 S9G18     30.22F
BINGHAMTON     CLOUDY    35  32  88 S13G21    30.26F WCI  26
MONTICELLO     CLOUDY    32  30  93 E8        30.38F WCI  25
$$

NYZ026>034-041>043-087-262000-
NORTH


CITY           SKY/WX    TMP DP  RH WIND       PRES   REMARKS
WATERTOWN      CLOUDY    41  36  82 NE10      30.24F
FORT DRUM      NOT AVBL
MASSENA        CLOUDY    31  16  54 NE14      30.35F WCI  21
SARANAC LAKE   CLOUDY    35  27  72 E7        30.26F WCI  29
PLATTSBURGH    CLOUDY    34  24  67 SE12      30.38F WCI  25
$$

NYZ001>004-010>016-019>021-085-262000-
WEST


CITY           SKY/WX    TMP DP  RH WIND       PRES   REMARKS
NIAGARA FALLS  CLOUDY    57  46  66 NE10      30.03F
BUFFALO        CLOUDY    59  46  62 S13       30.04F
DUNKIRK        CLOUDY    61  47  59 SE15G21   30.01F
JAMESTOWN      CLOUDY    52  43  71 S17G26    30.04F
WELLSVILLE     CLOUDY    44  39  82 SE16G26   30.13F
ROCHESTER      CLOUDY    53  43  68 SE13      30.11F
PENN YAN       CLOUDY    48  39  71 S15       30.17F
$$

             KEY
       WCI = WIND CHILL INDEX
       VSB = VISIBILITY
       HX  = HEAT INDEX
$$




USA.gov is the U.S. government's official web portal to all federal, state and local government web resources and services.